1483722000.28,22754,4.75,72478.3,-28.97,-60.69,-60.77,0,*6D
1483722001.55,22755,4.81,72472.5,-28.97,-60.93,-61.03,0,*6B
1483722002.83,22756,4.81,72474.8,-28.99,-60.77,-61.11,0,*6F
1483722004.12,22757,4.81,72474.5,-28.99,-61.03,-61.11,0,*6C
1483722005.41,22758,4.81,72484.8,-28.99,-61.03,-61.11,0,*63
1483722006.67,22759,4.81,72476.8,-28.97,-60.77,-60.93,0,*65
1483722007.94,22760,4.81,72474.3,-28.97,-60.77,-60.69,0,*6A
1483722009.23,22761,4.81,72468.0,-28.99,-61.03,-61.19,0,*61
1483722010.53,22762,4.81,72466.3,-28.99,-61.19,-61.61,0,*66
1483722011.81,22763,4.81,72462.5,-28.97,-61.03,-61.53,0,*63
1483722013.1,22764,4.81,72460.5,-28.99,-61.11,-61.19,0,*67
1483722014.37,22765,4.75,72456.8,-28.97,-61.11,-61.53,0,*66
1483722015.64,22766,4.75,72458.3,-28.99,-61.11,-61.43,0,*6A
1483722016.89,22767,4.81,72462.0,-28.97,-61.03,-61.35,0,*67
1483722018.16,22768,4.81,72466.5,-28.97,-61.03,-61.11,0,*6E
1483722019.43,22769,4.75,72466.3,-28.97,-60.93,-61.53,0,*61
1483722020.72,22770,4.81,72488.3,-28.99,-61.03,-61.19,0,*61
1483722022.01,22771,4.81,72486.3,-28.99,-61.11,-61.19,0,*63
1483722023.29,22772,4.75,72478.5,-28.97,-60.53,-60.69,0,*6F
1483722024.59,22773,4.81,72480.3,-28.99,-60.53,-60.61,0,*68
1483722025.85,22774,4.81,72482.0,-28.97,-60.93,-61.11,0,*6B
1483722027.14,22775,4.81,72482.8,-28.99,-61.03,-61.19,0,*64
1483722028.43,22776,4.81,72472.8,-28.99,-60.77,-61.11,0,*6D
1483722029.68,22777,4.81,72478.0,-28.97,-61.03,-61.43,0,*67
1483722030.94,22778,4.81,72480.3,-28.97,-60.77,-60.93,0,*66
1483722032.21,22779,4.81,72484.3,-28.97,-60.69,-61.03,0,*60
1483722033.5,22780,4.81,72482.8,-28.95,-60.77,-61.03,0,*6B
1483722034.8,22781,4.75,72480.0,-28.99,-60.85,-61.19,0,*60
1483722036.07,22782,4.81,72490.0,-28.97,-60.85,-60.93,0,*6E
1483722037.36,22783,4.81,72486.8,-28.99,-60.77,-61.11,0,*67
1483722038.62,22784,4.81,72488.3,-28.97,-60.69,-60.77,0,*60
1483722039.89,22785,4.81,72494.0,-28.97,-60.93,-61.11,0,*65
1483722041.18,22786,4.81,72492.0,-28.95,-60.77,-60.93,0,*65
1483722042.46,22787,4.75,72488.0,-28.97,-60.53,-60.77,0,*6A
1483722043.72,22788,4.81,72494.3,-28.97,-60.77,-61.03,0,*61
1483722044.99,22789,4.75,72490.3,-28.97,-60.77,-60.93,0,*68
1483722046.25,22790,4.75,72490.0,-28.97,-60.69,-61.03,0,*67
1483722047.52,22791,4.81,72496.8,-28.97,-60.93,-61.03,0,*63
1483722048.79,22792,4.81,72500.8,-28.97,-60.45,-60.77,0,*69
1483722050.06,22793,4.81,72504.3,-28.97,-60.77,-61.03,0,*6B
1483722051.32,22794,4.81,72500.0,-28.97,-60.77,-61.11,0,*6F
1483722052.61,22795,4.75,72500.8,-28.95,-60.77,-60.93,0,*67
1483722053.9,22796,4.81,72512.0,-28.95,-60.77,-60.77,0,*6E
1483722055.19,22797,4.81,72506.5,-28.95,-60.77,-60.93,0,*65
1483722056.48,22798,4.81,72492.5,-28.95,-60.93,-61.03,0,*68
1483722057.75,22799,4.81,72496.3,-28.95,-60.93,-61.35,0,*6C
1483722059.06,22800,4.81,72498.8,-28.95,-60.93,-61.53,0,*63
1483722060.33,22801,4.75,72488.8,-28.95,-61.03,-61.35,0,*6A
1483722061.59,22802,4.81,72486.8,-28.93,-60.93,-61.03,0,*62
1483722062.84,22803,4.81,72494.0,-28.97,-60.93,-61.35,0,*62
1483722064.13,22804,4.75,72492.8,-28.95,-60.93,-61.11,0,*61
1483722065.41,22805,4.81,72500.3,-28.95,-60.93,-61.11,0,*60
1483722066.71,22806,4.81,72498.8,-28.95,-60.77,-60.93,0,*62
1483722068.0,22807,4.75,72504.3,-28.95,-60.93,-61.03,0,*61
1483722069.27,22808,4.81,72502.5,-28.95,-60.93,-61.35,0,*6B
1483722070.56,22809,4.75,72494.0,-28.95,-60.77,-61.03,0,*65
1483722071.85,22810,4.81,72504.3,-28.95,-60.77,-61.03,0,*6D
1483722073.14,22811,4.75,72498.0,-28.95,-60.77,-61.03,0,*6C
1483722074.43,22812,4.81,72502.0,-28.95,-60.77,-60.93,0,*67
1483722075.72,22813,4.81,72500.5,-28.95,-60.77,-61.03,0,*6E
1483722077.01,22814,4.81,72496.5,-28.95,-60.69,-60.77,0,*64
1483722078.29,22815,4.81,72456.3,-28.95,-60.93,-61.11,0,*61
1483722079.56,22816,4.81,72464.8,-28.93,-60.77,-60.77,0,*6F
1483722080.84,22817,4.81,72466.5,-28.93,-60.19,-60.27,0,*63
1483722082.14,22818,4.81,72470.5,-28.95,-60.45,-60.53,0,*60
1483722083.45,22819,4.81,72474.3,-28.95,-60.27,-60.53,0,*65
1483722084.75,22820,4.81,72486.3,-28.95,-60.27,-60.45,0,*68
1483722086.0,22821,4.81,72496.8,-28.93,-60.03,-60.19,0,*60
1483722087.29,22822,4.81,72486.3,-28.93,-60.27,-60.53,0,*6B
1483722088.56,22823,4.81,72456.5,-28.93,-60.45,-60.77,0,*68
1483722089.83,22824,4.81,72450.8,-28.93,-60.45,-60.61,0,*68
1483722091.11,22825,4.81,72446.0,-28.93,-60.19,-60.45,0,*66
1483722092.39,22826,4.81,72460.5,-28.93,-60.61,-60.85,0,*66
1483722093.67,22827,4.81,72508.3,-28.89,-60.37,-60.61,0,*65
1483722094.94,22828,4.75,72528.0,-28.89,-60.37,-60.45,0,*6C
1483722096.19,22829,4.81,72524.0,-28.93,-59.95,-60.37,0,*61
1483722097.47,22830,4.81,72512.5,-28.93,-60.37,-60.69,0,*60
1483722098.75,22831,4.75,72494.0,-28.93,-60.61,-60.85,0,*60
1483722100.02,22832,4.75,72480.3,-28.89,-60.85,-61.03,0,*6D
1483722101.29,22833,4.75,72462.0,-28.89,-60.69,-60.85,0,*61
1483722102.55,22834,4.75,72478.8,-28.89,-60.69,-60.93,0,*61
1483722103.81,22835,4.81,72476.0,-28.89,-60.93,-61.27,0,*6B
1483722105.09,22836,4.81,72452.0,-28.89,-60.61,-60.85,0,*6C
1483722106.36,22837,4.81,72450.3,-28.89,-60.69,-60.85,0,*65
1483722107.65,22838,4.81,72454.8,-28.87,-60.77,-61.19,0,*6F
1483722108.94,22839,4.81,72458.8,-28.87,-60.85,-61.19,0,*63
1483722110.24,22840,4.81,72458.5,-28.87,-60.77,-60.93,0,*63
1483722111.53,22841,4.81,72468.5,-28.87,-60.85,-61.19,0,*6C
1483722112.82,22842,4.75,72460.0,-28.87,-60.77,-60.93,0,*61
1483722114.11,22843,4.81,72468.5,-28.87,-60.77,-61.19,0,*63
1483722115.42,22844,4.81,72472.3,-28.87,-60.61,-60.77,0,*6A
1483722116.72,22845,4.81,72470.0,-28.87,-60.61,-60.85,0,*66
1483722118.02,22846,4.81,72488.3,-28.87,-60.53,-60.85,0,*64
1483722119.33,22847,4.81,72502.0,-28.87,-60.61,-60.93,0,*63
1483722120.63,22848,4.81,72496.0,-28.87,-60.61,-60.85,0,*6B
1483722121.92,22849,4.75,72494.8,-28.87,-60.77,-61.19,0,*69
1483722123.2,22850,4.75,72498.3,-28.87,-60.85,-61.35,0,*62
1483722124.48,22851,4.81,72492.0,-28.87,-60.85,-61.43,0,*62
1483722125.75,22852,4.81,72492.3,-28.87,-61.11,-61.43,0,*6D
1483722127.02,22853,4.75,72494.8,-28.87,-60.85,-61.43,0,*60
1483722128.29,22854,4.81,72504.0,-28.87,-61.11,-61.43,0,*6B
1483722129.57,22855,4.75,72482.0,-28.85,-60.85,-60.93,0,*68
1483722130.84,22856,4.75,72466.0,-28.87,-60.93,-61.43,0,*62
1483722132.11,22857,4.81,72474.3,-28.89,-60.85,-61.03,0,*6E
1483722133.35,22858,4.75,72472.5,-28.89,-60.93,-61.43,0,*62
1483722134.62,22859,4.81,72486.8,-28.87,-60.93,-61.43,0,*6D
1483722135.9,22860,4.75,72496.8,-28.87,-60.85,-61.43,0,*60
1483722137.19,22861,4.81,72498.8,-28.87,-60.85,-60.93,0,*6D
1483722138.49,22862,4.81,72498.0,-28.87,-60.85,-61.19,0,*6D
1483722139.74,22863,4.81,72494.8,-28.85,-60.93,-61.35,0,*67
1483722141.03,22864,4.81,72482.3,-28.87,-60.93,-61.19,0,*6C
1483722142.3,22865,4.81,72482.5,-28.87,-60.93,-61.35,0,*63
1483722143.57,22866,4.81,72484.0,-28.87,-60.93,-61.35,0,*60
1483722144.82,22867,4.75,72482.5,-28.85,-60.93,-61.43,0,*62
1483722146.09,22868,4.81,72492.3,-28.87,-61.11,-61.43,0,*64
1483722147.36,22869,4.75,72492.5,-28.87,-60.93,-61.43,0,*6E
1483722148.66,22870,4.75,72494.5,-28.87,-61.11,-61.61,0,*6D
1483722149.96,22871,4.81,72498.0,-28.87,-61.19,-61.61,0,*64
1483722151.23,22872,4.81,72500.3,-28.87,-60.85,-61.43,0,*63
1483722152.51,22873,4.75,72500.0,-28.89,-60.93,-61.53,0,*6A
1483722153.77,22874,4.75,72498.8,-28.89,-60.93,-61.03,0,*68
1483722155.02,22875,4.75,72502.0,-28.93,-60.93,-61.43,0,*66
1483722156.28,22876,4.81,72502.8,-28.89,-60.93,-61.27,0,*6C
1483722157.54,22877,4.81,72496.8,-28.89,-60.93,-61.27,0,*6D
1483722158.78,22878,4.81,72496.8,-28.89,-61.03,-61.43,0,*68
1483722160.02,22879,4.81,72502.0,-28.89,-60.93,-61.43,0,*61
1483722161.3,22880,4.75,72498.8,-28.93,-60.93,-61.53,0,*6D
1483722162.58,22881,4.75,72498.3,-28.89,-61.03,-61.53,0,*6F
1483722163.85,22882,4.81,72502.5,-28.89,-61.03,-61.53,0,*6C
1483722165.1,22883,4.81,72498.0,-28.89,-61.03,-61.69,0,*64
1483722166.35,22884,4.81,72492.0,-28.89,-61.03,-61.69,0,*63
1483722167.59,22885,4.75,72494.0,-28.93,-61.03,-61.69,0,*69
1483722168.84,22886,4.75,72490.3,-28.93,-61.03,-61.69,0,*6A
1483722170.12,22887,4.81,72498.3,-28.93,-60.93,-61.53,0,*6A
1483722171.39,22888,4.81,72502.3,-28.93,-60.93,-61.27,0,*66
1483722172.66,22889,4.81,72504.5,-28.93,-60.93,-61.53,0,*64
1483722173.91,22890,4.81,72508.5,-28.93,-60.93,-61.43,0,*6D
1483722175.16,22891,4.81,72504.8,-28.93,-60.93,-61.43,0,*6C
1483722176.42,22892,4.81,72492.3,-28.93,-60.93,-61.03,0,*6B
1483722177.7,22893,4.75,72490.3,-28.93,-61.03,-61.53,0,*67
1483722178.95,22894,4.81,72498.0,-28.93,-60.93,-61.43,0,*69
1483722180.23,22895,4.75,72492.8,-28.93,-60.93,-61.53,0,*69
1483722181.51,22896,4.81,72498.3,-28.93,-61.19,-61.53,0,*69
1483722182.78,22897,4.75,72496.0,-28.93,-61.03,-61.61,0,*62
1483722184.06,22898,4.81,72486.0,-28.93,-61.27,-61.61,0,*6B
1483722185.32,22899,4.81,72486.8,-28.95,-61.27,-61.77,0,*6B
1483722186.6,22900,4.75,72484.3,-28.93,-61.03,-61.61,0,*6D
1483722187.87,22901,4.75,72486.5,-28.93,-61.11,-61.61,0,*6F
1483722189.17,22902,4.75,72490.0,-28.95,-61.03,-61.61,0,*69
1483722190.45,22903,4.75,72498.8,-28.93,-60.85,-61.03,0,*65
1483722191.72,22904,4.75,72480.0,-28.93,-60.53,-60.69,0,*64
1483722192.99,22905,4.81,72474.8,-28.93,-60.69,-60.93,0,*69
1483722194.25,22906,4.75,72488.5,-28.93,-60.69,-61.27,0,*64
1483722195.52,22907,4.75,72488.5,-28.93,-60.69,-60.85,0,*6C
1483722196.79,22908,4.81,72494.3,-28.93,-60.69,-60.93,0,*64
1483722198.07,22909,4.75,72490.5,-28.93,-60.85,-60.93,0,*67
1483722199.34,22910,4.81,72502.0,-28.93,-60.85,-61.27,0,*61
1483722200.59,22911,4.81,72496.8,-28.93,-60.93,-61.43,0,*65
1483722201.85,22912,4.75,72492.3,-28.93,-60.93,-61.27,0,*64
1483722203.13,22913,4.81,72494.8,-28.89,-61.19,-61.53,0,*6E
1483722204.35,22914,4.81,72496.8,-28.93,-61.43,-61.77,0,*6B
1483722205.57,22915,4.75,72494.8,-28.93,-61.43,-61.77,0,*6A
1483722206.82,22916,4.75,72492.5,-28.93,-61.27,-61.69,0,*64
1483722208.07,22917,4.81,72490.8,-28.93,-61.03,-61.43,0,*6B
1483722209.33,22918,4.75,72494.8,-28.93,-60.93,-61.27,0,*6E
1483722210.61,22919,4.81,72498.3,-28.93,-61.03,-61.53,0,*64
1483722211.89,22920,4.75,72492.0,-28.93,-61.27,-61.53,0,*68
1483722213.11,22921,4.75,72496.8,-28.93,-61.43,-61.77,0,*6D
1483722214.36,22922,4.75,72500.5,-28.93,-61.53,-61.77,0,*6F
1483722215.62,22923,4.75,72512.0,-28.93,-61.43,-61.95,0,*63
1483722216.89,22924,4.75,72494.3,-28.93,-60.93,-61.53,0,*62
1483722218.14,22925,4.75,72486.5,-28.93,-60.93,-61.43,0,*62
1483722219.42,22926,4.75,72488.5,-28.93,-61.19,-61.53,0,*63
1483722220.7,22927,4.81,72484.8,-28.93,-61.19,-61.53,0,*62
1483722221.98,22928,4.75,72494.5,-28.93,-61.19,-61.53,0,*6D
1483722223.23,22929,4.81,72494.3,-28.93,-61.53,-61.77,0,*64
1483722224.48,22930,4.75,72500.5,-28.93,-61.35,-61.61,0,*6B
1483722225.71,22931,4.81,72510.3,-28.93,-61.35,-61.85,0,*60
1483722226.98,22932,4.75,72498.0,-28.93,-61.27,-61.61,0,*6A
1483722228.29,22933,4.75,72494.0,-28.95,-61.03,-61.53,0,*6A
1483722229.53,22934,4.81,72496.5,-28.93,-60.93,-61.43,0,*62
1483722230.81,22935,4.81,72498.0,-28.93,-61.11,-61.61,0,*68
1483722232.08,22936,4.81,72508.5,-28.93,-61.11,-61.61,0,*6B
1483722233.3,22937,4.75,72500.8,-28.93,-61.35,-61.77,0,*6B
1483722234.58,22938,4.81,72500.5,-28.93,-61.03,-61.53,0,*67
1483722235.82,22939,4.75,72512.5,-28.93,-61.11,-61.77,0,*63
1483722237.1,22940,4.75,72504.8,-28.93,-61.03,-61.53,0,*68
1483722238.35,22941,4.75,72500.3,-28.93,-61.11,-61.35,0,*6A
1483722239.63,22942,4.75,72504.5,-28.93,-61.03,-61.53,0,*6A
1483722240.91,22943,4.81,72508.3,-28.93,-61.27,-61.61,0,*6C
1483722242.15,22944,4.75,72496.5,-28.93,-61.27,-61.77,0,*6C
1483722243.42,22945,4.81,72500.0,-28.93,-61.27,-61.61,0,*6A
1483722244.7,22946,4.75,72502.0,-28.93,-61.11,-61.61,0,*6C
1483722245.97,22947,4.75,72502.5,-28.93,-61.03,-61.61,0,*6E
1483722247.25,22948,4.75,72496.5,-28.93,-61.03,-61.53,0,*60
1483722248.53,22949,4.75,72494.8,-28.93,-61.03,-61.53,0,*61
1483722249.8,22950,4.75,72496.5,-28.95,-61.03,-61.35,0,*6F
1483722251.08,22951,4.75,72502.0,-28.93,-61.11,-61.53,0,*6B
1483722252.36,22952,4.81,72510.5,-28.93,-61.27,-61.61,0,*6C
1483722253.64,22953,4.75,72496.3,-28.93,-61.11,-61.53,0,*69
1483722254.88,22954,4.81,72480.0,-28.93,-61.11,-61.35,0,*6E
1483722256.16,22955,4.81,72476.5,-28.93,-61.11,-61.53,0,*6F
1483722257.44,22956,4.75,72492.3,-28.93,-61.03,-61.53,0,*6F
1483722258.69,22957,4.75,72504.3,-28.93,-61.03,-61.35,0,*6E
1483722259.95,22958,4.75,72498.5,-28.93,-61.03,-61.11,0,*67
1483722261.2,22959,4.75,72482.5,-28.93,-61.03,-61.35,0,*60
1483722262.46,22960,4.75,72472.3,-28.93,-61.03,-61.11,0,*6C
1483722263.71,22961,4.75,72462.3,-28.93,-60.93,-61.43,0,*62
1483722264.98,22962,4.75,72474.0,-28.93,-60.93,-61.27,0,*63
1483722266.22,22963,4.75,72476.3,-28.93,-60.93,-61.43,0,*60
1483722267.49,22964,4.75,72488.5,-28.93,-60.93,-61.03,0,*63
1483722268.75,22965,4.75,72490.8,-28.93,-60.93,-61.27,0,*64
1483722270.02,22966,4.75,72492.3,-28.93,-60.93,-61.03,0,*61
1483722271.27,22967,4.75,72472.3,-28.93,-61.03,-61.43,0,*6C
1483722272.51,22968,4.75,72476.0,-28.93,-61.03,-61.43,0,*63
1483722273.78,22969,4.75,72480.0,-28.93,-60.93,-61.27,0,*68
1483722275.06,22970,4.75,72492.8,-28.93,-61.03,-61.53,0,*6B
1483722276.32,22971,4.75,72496.5,-28.89,-60.93,-61.27,0,*6A
1483722277.6,22972,4.75,72490.8,-28.93,-61.19,-61.53,0,*62
1483722278.84,22973,4.75,72488.0,-28.93,-61.27,-61.77,0,*68
1483722280.09,22974,4.75,72490.8,-28.93,-61.27,-61.69,0,*60
1483722281.34,22975,4.75,72486.5,-28.93,-61.19,-61.69,0,*6C
1483722282.59,22976,4.75,72460.5,-28.93,-61.19,-61.69,0,*6F
1483722283.84,22977,4.75,72466.0,-28.93,-61.03,-61.43,0,*6D
1483722285.11,22978,4.75,72462.3,-28.93,-61.11,-61.61,0,*61
1483722286.39,22979,4.75,72464.3,-28.93,-61.27,-61.61,0,*65
1483722287.66,22980,4.75,72484.5,-28.93,-61.11,-61.61,0,*66
1483722288.94,22981,4.81,72486.5,-28.93,-61.19,-61.53,0,*6E
1483722290.22,22982,4.81,72488.0,-28.93,-60.93,-61.53,0,*6E
1483722291.5,22983,4.75,72492.0,-28.93,-61.03,-61.53,0,*67
1483722292.78,22984,4.75,72496.0,-28.93,-61.19,-61.53,0,*6B
1483722294.05,22985,4.81,72486.5,-28.93,-60.85,-61.27,0,*6D
1483722295.31,22986,4.81,72476.8,-28.93,-61.03,-61.27,0,*61
1483722296.56,22987,4.75,72474.3,-28.93,-60.93,-61.43,0,*6A
1483722297.82,22988,4.75,72470.8,-28.93,-60.93,-61.03,0,*61
1483722299.07,22989,4.75,72468.0,-28.89,-61.03,-61.43,0,*67
1483722300.35,22990,4.75,72470.0,-28.93,-61.03,-61.53,0,*65
1483722301.63,22991,4.75,72474.0,-28.93,-61.19,-61.53,0,*6F
1483722302.91,22992,4.75,72474.3,-28.93,-61.19,-61.53,0,*6C
1483722304.15,22993,4.81,72482.8,-28.93,-61.27,-61.77,0,*66
1483722305.37,22994,4.75,72468.0,-28.93,-61.35,-61.77,0,*62
1483722306.62,22995,4.75,72470.3,-28.93,-61.35,-61.61,0,*64
1483722307.88,22996,4.75,72468.3,-28.93,-61.35,-61.61,0,*67
1483722309.15,22997,4.81,72466.3,-28.93,-61.11,-61.61,0,*60
1483722310.41,22998,4.81,72480.5,-28.93,-61.35,-61.61,0,*69
1483722311.71,22999,4.81,72474.8,-28.95,-61.11,-61.53,0,*69
1483722312.98,23000,4.75,72476.0,-28.93,-61.11,-61.61,0,*66
1483722314.26,23001,4.75,72480.3,-28.93,-61.11,-61.61,0,*67
1483722315.54,23002,4.81,72476.0,-28.93,-61.11,-61.53,0,*65
1483722316.81,23003,4.75,72482.8,-28.93,-61.11,-61.53,0,*64
1483722318.09,23004,4.75,72474.5,-28.93,-61.03,-61.53,0,*60
1483722319.37,23005,4.75,72478.5,-28.93,-61.11,-61.53,0,*62
1483722320.62,23006,4.75,72488.5,-28.93,-61.35,-61.61,0,*66
1483722321.88,23007,4.81,72494.5,-28.93,-61.35,-61.61,0,*67
1483722323.1,23008,4.81,72488.5,-28.93,-61.35,-61.77,0,*6F
1483722324.37,23009,4.75,72486.0,-28.93,-61.11,-61.61,0,*6F
1483722325.6,23010,4.75,72494.3,-28.93,-61.35,-61.77,0,*66
1483722326.87,23011,4.81,72492.8,-28.93,-61.11,-61.61,0,*66
1483722328.09,23012,4.75,72488.5,-28.93,-61.35,-61.77,0,*64
1483722329.31,23013,4.75,72488.5,-28.93,-61.35,-61.77,0,*65
1483722330.56,23014,4.75,72496.5,-28.95,-61.35,-61.77,0,*64
1483722331.81,23015,4.81,72490.5,-28.93,-61.53,-61.85,0,*6E
1483722333.08,23016,4.75,72488.0,-28.95,-61.53,-61.77,0,*66
1483722334.36,23017,4.81,72488.0,-28.95,-61.53,-61.85,0,*6A
1483722335.62,23018,4.81,72490.3,-28.93,-61.53,-61.85,0,*63
1483722336.89,23019,4.75,72490.5,-28.95,-61.61,-61.85,0,*65
1483722338.17,23020,4.81,72492.3,-28.95,-61.53,-61.77,0,*63
1483722339.43,23021,4.75,72486.0,-28.95,-61.27,-61.77,0,*61
1483722340.73,23022,4.75,72482.8,-28.95,-61.27,-61.61,0,*65
1483722342.0,23023,4.75,72488.5,-28.95,-61.11,-61.35,0,*60
1483722343.28,23024,4.75,72496.3,-28.95,-61.35,-61.61,0,*60
1483722344.58,23025,4.75,72496.0,-28.95,-61.11,-61.61,0,*67
1483722345.85,23026,4.81,72492.3,-28.95,-61.53,-61.77,0,*65
1483722347.12,23027,4.75,72484.0,-28.95,-61.27,-61.77,0,*67
1483722348.42,23028,4.75,72476.0,-28.95,-61.11,-61.61,0,*6A
1483722349.71,23029,4.75,72486.5,-28.95,-61.11,-61.61,0,*6B
1483722350.93,23030,4.75,72494.8,-28.97,-61.35,-61.77,0,*60
1483722352.18,23031,4.75,72490.0,-28.97,-61.27,-61.77,0,*62
1483722353.4,23032,4.75,72476.8,-28.97,-61.35,-61.77,0,*62
1483722354.7,23033,4.81,72484.8,-28.99,-61.19,-61.61,0,*64
1483722355.95,23034,4.75,72486.0,-28.97,-61.53,-61.85,0,*69
1483722357.17,23035,4.81,72484.8,-28.97,-61.35,-61.77,0,*65
1483722358.45,23036,4.75,72480.5,-28.99,-61.61,-61.85,0,*64
1483722359.75,23037,4.75,72486.5,-28.99,-61.61,-61.95,0,*64
1483722361.0,23038,4.81,72486.5,-28.99,-61.43,-61.85,0,*6A
1483722362.3,23039,4.75,72480.3,-28.99,-61.19,-61.61,0,*6E
1483722363.55,23040,4.75,72480.3,-28.99,-61.43,-61.85,0,*65
1483722364.83,23041,4.75,72494.8,-28.97,-61.27,-61.61,0,*62
1483722366.07,23042,4.81,72494.8,-28.97,-61.27,-61.77,0,*66
1483722367.35,23043,4.75,72492.8,-28.99,-61.19,-61.69,0,*6B
1483722368.6,23044,4.75,72490.3,-28.99,-61.35,-61.69,0,*62
1483722369.85,23045,4.75,72486.3,-28.99,-61.35,-61.85,0,*61
1483722371.1,23046,4.75,72488.8,-28.99,-61.35,-61.85,0,*62
1483722372.35,23047,4.75,72488.5,-28.99,-61.43,-61.85,0,*62
1483722373.6,23048,4.75,72486.3,-28.99,-61.43,-61.85,0,*6D
1483722374.83,23049,4.75,72480.8,-29.03,-61.35,-61.85,0,*6F
1483722376.1,23050,4.75,72488.5,-28.99,-61.19,-61.69,0,*69
1483722377.35,23051,4.75,72488.5,-28.99,-61.35,-61.69,0,*66
1483722378.59,23052,4.75,72488.3,-29.03,-61.19,-61.69,0,*69
1483722379.82,23053,4.75,72486.0,-29.03,-61.35,-61.69,0,*66
1483722381.04,23054,4.75,72480.8,-29.03,-61.35,-61.69,0,*61
1483722382.28,23055,4.75,72496.5,-29.03,-61.19,-61.69,0,*6E
1483722383.56,23056,4.75,72508.3,-28.99,-61.19,-61.69,0,*6F
1483722384.83,23057,4.75,72484.8,-28.99,-61.19,-61.69,0,*6E
1483722386.05,23058,4.75,72470.5,-29.03,-61.35,-61.85,0,*6F
1483722387.32,23059,4.75,72480.3,-29.03,-61.19,-61.61,0,*6A
1483722388.56,23060,4.81,72484.3,-29.03,-61.11,-61.43,0,*68
1483722389.81,23061,4.75,72482.5,-29.03,-61.19,-61.43,0,*61
1483722391.05,23062,4.75,72482.3,-29.03,-61.11,-61.43,0,*6A
1483722392.29,23063,4.75,72480.0,-29.03,-61.19,-61.69,0,*6B
1483722393.54,23064,4.75,72476.3,-29.03,-61.11,-61.43,0,*6C
1483722394.81,23065,4.75,72468.5,-29.03,-61.11,-61.61,0,*6D
1483722396.05,23066,4.81,72478.0,-29.03,-61.19,-61.69,0,*6E
1483722397.29,23067,4.75,72482.5,-29.03,-61.11,-61.69,0,*67
1483722398.52,23068,4.75,72480.5,-29.03,-61.35,-61.69,0,*6E
1483722399.76,23069,4.75,72476.5,-29.03,-61.19,-61.43,0,*69
1483722401.0,23070,4.75,72486.8,-29.03,-61.19,-61.69,0,*69
1483722402.25,23071,4.75,72480.3,-29.03,-61.19,-61.43,0,*60
1483722403.47,23072,4.81,72490.0,-29.03,-61.35,-61.69,0,*65
1483722404.73,23073,4.75,72480.3,-29.05,-61.27,-61.77,0,*6E
1483722405.98,23074,4.75,72482.8,-29.03,-61.11,-61.43,0,*6D
1483722407.27,23075,4.75,72494.0,-29.05,-61.53,-61.95,0,*67
1483722408.52,23076,4.75,72490.8,-29.03,-61.35,-61.61,0,*69
1483722409.79,23077,4.75,72484.0,-29.03,-61.27,-61.61,0,*6B
1483722411.04,23078,4.75,72486.0,-29.03,-61.19,-61.69,0,*61
1483722412.28,23079,4.81,72482.0,-29.05,-61.43,-61.77,0,*66
1483722413.58,23080,4.75,72482.8,-29.05,-61.53,-61.95,0,*6D
1483722414.86,23081,4.75,72482.8,-29.05,-61.43,-61.95,0,*6D
1483722416.1,23082,4.75,72468.3,-29.03,-61.27,-61.69,0,*69
1483722417.37,23083,4.75,72468.5,-29.05,-61.27,-61.69,0,*6E
1483722418.64,23084,4.75,72472.5,-29.05,-61.19,-61.69,0,*64
1483722419.89,23085,4.81,72474.5,-29.03,-61.19,-61.69,0,*63
1483722421.16,23086,4.81,72460.3,-29.05,-61.27,-61.69,0,*6B
1483722422.43,23087,4.75,72456.0,-29.05,-61.11,-61.69,0,*6F
1483722423.7,23088,4.81,72454.3,-29.03,-61.19,-61.53,0,*67
1483722424.97,23089,4.75,72446.0,-29.05,-61.19,-61.69,0,*69
1483722426.28,23090,4.75,72460.8,-29.05,-61.19,-61.53,0,*68
1483722427.54,23091,4.75,72456.5,-29.03,-61.11,-61.19,0,*69
1483722428.83,23092,4.75,72466.3,-29.05,-61.11,-61.19,0,*6C
1483722430.13,23093,4.75,72458.8,-29.05,-61.11,-61.53,0,*63
1483722431.39,23094,4.75,72462.3,-29.03,-61.03,-61.19,0,*6F
1483722432.66,23095,4.75,72466.8,-29.03,-60.85,-61.19,0,*61
1483722433.93,23096,4.75,72460.0,-29.03,-61.27,-61.61,0,*64
1483722435.17,23097,4.75,72452.8,-29.03,-61.11,-61.43,0,*60
1483722436.43,23098,4.75,72452.5,-29.03,-61.03,-61.19,0,*63
1483722437.69,23099,4.75,72456.0,-29.03,-61.03,-61.19,0,*62
1483722438.96,23100,4.75,72452.5,-29.03,-61.03,-61.19,0,*63
1483722440.21,23101,4.75,72466.5,-29.03,-60.85,-61.43,0,*62
1483722441.5,23102,4.75,72466.5,-29.05,-61.11,-61.53,0,*6A
1483722442.75,23103,4.81,72456.3,-29.03,-61.03,-61.43,0,*6F
1483722444.01,23104,4.75,72464.3,-29.03,-60.77,-61.03,0,*6E
1483722445.27,23105,4.75,72460.3,-29.03,-60.77,-61.11,0,*6C
1483722446.51,23106,4.75,72474.0,-29.03,-61.03,-61.43,0,*6A
1483722447.8,23107,4.75,72468.0,-29.05,-60.93,-61.19,0,*6A
1483722449.08,23108,4.81,72472.0,-28.99,-61.03,-61.11,0,*61
1483722450.38,23109,4.75,72466.0,-28.99,-60.85,-61.19,0,*67
1483722451.62,23110,4.81,72460.3,-29.03,-61.03,-61.43,0,*6D
1483722452.88,23111,4.75,72460.3,-29.03,-60.77,-61.11,0,*69
1483722454.14,23112,4.75,72442.3,-29.03,-61.03,-61.19,0,*60
1483722455.38,23113,4.75,72440.5,-29.03,-61.03,-61.43,0,*6E
1483722456.63,23114,4.81,72448.3,-29.03,-61.11,-61.43,0,*6A
1483722457.91,23115,4.75,72444.0,-29.03,-60.61,-60.85,0,*66
1483722459.17,23116,4.75,72464.8,-29.03,-60.77,-61.03,0,*6D
1483722460.44,23117,4.81,72472.3,-29.03,-60.61,-60.77,0,*69
1483722461.74,23118,4.75,72476.8,-28.99,-60.53,-61.03,0,*67
1483722463.03,23119,4.75,72480.0,-28.99,-60.77,-60.85,0,*6F
1483722464.3,23120,4.75,72482.5,-28.97,-60.45,-60.69,0,*68
1483722465.6,23121,4.75,72476.3,-28.99,-60.53,-60.77,0,*6F
1483722466.88,23122,4.75,72478.3,-28.97,-60.45,-60.93,0,*6F
1483722468.14,23123,4.75,72476.8,-28.97,-60.77,-61.03,0,*67
1483722469.41,23124,4.75,72482.5,-28.97,-60.69,-60.93,0,*67
1483722470.65,23125,4.75,72478.8,-28.97,-60.77,-61.35,0,*64
1483722471.92,23126,4.75,72480.5,-28.97,-60.93,-61.11,0,*6B
1483722473.16,23127,4.75,72486.8,-28.97,-60.93,-61.35,0,*6C
1483722474.46,23128,4.75,72490.0,-28.99,-61.03,-61.61,0,*64
1483722475.76,23129,4.75,72492.3,-28.99,-60.85,-61.19,0,*65
1483722477.05,23130,4.81,72482.5,-28.99,-61.03,-61.11,0,*6A
1483722478.32,23131,4.75,72476.3,-28.99,-61.03,-61.43,0,*6C
1483722479.59,23132,4.75,72474.0,-28.97,-61.03,-61.53,0,*60
1483722480.87,23133,4.75,72480.3,-28.99,-61.19,-61.43,0,*65
1483722482.14,23134,4.75,72476.3,-28.97,-61.11,-61.61,0,*64
1483722483.42,23135,4.75,72472.8,-28.97,-61.03,-61.53,0,*67
1483722484.71,23136,4.75,72478.0,-28.99,-61.03,-61.19,0,*64
1483722485.98,23137,4.75,72478.8,-28.99,-61.03,-61.43,0,*6A
1483722487.25,23138,4.81,72484.8,-28.99,-61.19,-61.69,0,*66
1483722488.52,23139,4.75,72476.5,-28.99,-61.11,-61.43,0,*67
1483722489.79,23140,4.75,72474.8,-28.99,-61.11,-61.69,0,*61
1483722491.09,23141,4.75,72484.0,-28.99,-61.19,-61.61,0,*60
1483722492.39,23142,4.75,72490.5,-28.99,-61.11,-61.61,0,*6B
1483722493.69,23143,4.75,72494.0,-28.99,-61.11,-61.61,0,*6A
1483722494.96,23144,4.75,72498.5,-28.99,-61.19,-61.69,0,*6D
1483722496.23,23145,4.75,72490.5,-28.99,-61.11,-61.69,0,*64
1483722497.51,23146,4.75,72482.0,-28.99,-61.11,-61.69,0,*67
1483722498.78,23147,4.75,72480.5,-28.99,-61.03,-61.43,0,*6D
1483722500.07,23148,4.75,72472.3,-28.99,-60.85,-61.03,0,*69
1483722501.34,23149,4.75,72482.5,-28.99,-61.03,-61.43,0,*63
1483722502.59,23150,4.75,72482.8,-29.03,-61.11,-61.43,0,*6A
1483722503.88,23151,4.81,72488.5,-28.99,-61.19,-61.61,0,*61
1483722505.16,23152,4.75,72476.3,-28.99,-61.19,-61.69,0,*6A
1483722506.43,23153,4.75,72482.8,-28.99,-61.11,-61.69,0,*63